{"data":{"norad_id":58531,"intl_designator":"2023-192A","name":"STARLINK-31012","alt_names":[],"object_type":"PAYLOAD","status":"ACTIVE","operator":null,"country":"US","launch_date":"2023-12-08","launch_site_code":"AFWTR","launch_vehicle":null,"mission":null,"orbit_class":"UNKNOWN","rcs_meters":null,"size_class":null,"mass_kg":null,"dimensions":null,"purposes":["comms"],"wikipedia_slug":null,"has_3d_model":false,"image_url":null,"decayed_at":null,"tle_current":{"epoch":"2026-05-25T02:04:15.493152Z","epoch_age_seconds":77886,"freshness":"FRESH","line1":"1 58531U 23192A   26145.08629043 -.00000279  00000+0  26897-5 0  9994","line2":"2 58531  53.1601  67.7734 0000952  82.3263 277.7846 15.30198458137684","mean_motion":15.30198458,"eccentricity":9.52e-5,"inclination_deg":53.1601,"raan_deg":67.7734,"arg_perigee_deg":82.3263,"mean_anomaly_deg":277.7846,"bstar":2.6897e-6,"rev_number":13768,"period_min":94.10544053757,"perigee_km":474.56723400192,"apogee_km":475.87211311257,"semimajor_km":6853.3566735572,"source":"CELESTRAK","updated_at":"2026-05-25T13:38:18.660065Z"}}}